WXM80 ListenWXM80 Stop

You find our weather info also at:

UK Metoffice

WeatherCloud

Weather Underground

Northeastern Weather Network

AWEKAS

Citizen Weather Observer Program (CWOP)

HAMweather, WeatherForYou, PWS Weather


Weather Underground History page Text

Daily Summary for November 23, 2017 Units:  English    Metric   Both
« Previous Day
Next Day »
Daily Weekly Monthly Yearly Custom
  High: Low: Average:
Temperature: 42.5 °F 31.1 °F 36.2 °F
Dew Point: 29.1 °F 24.5 °F 26.3 °F
Humidity: 81 % 52 % 67 %
Wind Speed: 7.4 mph 0.0 mph 1.9 mph
Wind Gust: 15.0 mph - -
Wind:- - West
Pressure: 30.14 in 29.80 in -
Precipitation: 0.00 in    
Historical Graphs
 
 
Tabular Data for November 23, 2017
Time Temperature Dew Point Pressure Wind Wind Speed Wind Gust Humidity Rainfall Rate (Hourly)
00:02 38.1 °F 28.8 °F 30.08 in SW 4.8 mph 10.4 mph 69 % 0.00 in
00:07 38.1 °F 28.8 °F 30.08 in North 4.6 mph 6.0 mph 69 % 0.00 in
00:12 38.0 °F 29.1 °F 30.08 in North 5.3 mph 14.0 mph 70 % 0.00 in
00:17 38.0 °F 28.7 °F 30.09 in NNW 4.5 mph 6.9 mph 69 % 0.00 in
00:23 37.9 °F 28.6 °F 30.08 in NNW 3.8 mph 8.1 mph 69 % 0.00 in
00:33 37.7 °F 28.8 °F 30.08 in NW 1.0 mph 8.1 mph 70 % 0.00 in
00:38 37.7 °F 28.8 °F 30.08 in WNW 4.3 mph 10.4 mph 70 % 0.00 in
00:43 37.6 °F 28.7 °F 30.08 in NW 5.4 mph 7.0 mph 70 % 0.00 in
00:48 37.5 °F 28.2 °F 30.07 in West 2.4 mph 12.7 mph 69 % 0.00 in
00:53 37.5 °F 28.6 °F 30.07 in WNW 2.9 mph 8.1 mph 70 % 0.00 in
01:03 37.4 °F 28.5 °F 30.07 in West 6.4 mph 11.5 mph 70 % 0.00 in
01:08 37.3 °F 28.4 °F 29.84 in WNW 0.9 mph 8.1 mph 70 % 0.00 in
01:18 37.1 °F 28.2 °F 30.08 in West 5.3 mph 10.4 mph 70 % 0.00 in
01:23 37.0 °F 28.5 °F 30.08 in North 4.7 mph 8.0 mph 71 % 0.00 in
01:28 36.9 °F 28.4 °F 30.08 in WSW 3.2 mph 6.0 mph 71 % 0.00 in
01:38 36.7 °F 28.2 °F 29.85 in NW 3.0 mph 6.9 mph 71 % 0.00 in
01:53 36.5 °F 28.0 °F 30.09 in NW 2.2 mph 5.8 mph 71 % 0.00 in
01:58 36.4 °F 27.9 °F 30.09 in WNW 4.4 mph 8.1 mph 71 % 0.00 in
02:03 36.4 °F 27.9 °F 30.09 in NW 3.8 mph 6.0 mph 71 % 0.00 in
02:13 36.1 °F 27.6 °F 30.10 in West 4.6 mph 8.1 mph 71 % 0.00 in
02:18 36.1 °F 27.6 °F 30.10 in West 6.0 mph 9.2 mph 71 % 0.00 in
02:23 36.0 °F 27.5 °F 30.10 in WNW 5.0 mph 9.2 mph 71 % 0.00 in
02:28 35.9 °F 27.4 °F 30.10 in NW 2.5 mph 8.0 mph 71 % 0.00 in
02:38 35.8 °F 27.7 °F 30.09 in NW 3.6 mph 9.2 mph 72 % 0.00 in
02:43 35.7 °F 27.2 °F 30.09 in NNE 2.5 mph 8.1 mph 71 % 0.00 in
02:53 35.7 °F 27.6 °F 29.86 in WNW 5.2 mph 11.5 mph 72 % 0.00 in
02:58 35.6 °F 27.1 °F 30.09 in WNW 5.2 mph 11.5 mph 71 % 0.00 in
03:03 35.6 °F 27.5 °F 30.09 in West 3.4 mph 11.5 mph 72 % 0.00 in
03:08 35.6 °F 27.5 °F 30.09 in WNW 5.5 mph 9.2 mph 72 % 0.00 in
03:13 35.6 °F 27.5 °F 30.10 in WNW 3.9 mph 11.5 mph 72 % 0.00 in
03:18 35.6 °F 27.1 °F 30.09 in North 7.4 mph 15.0 mph 71 % 0.00 in
03:23 35.5 °F 27.4 °F 30.08 in WNW 6.1 mph 10.4 mph 72 % 0.00 in
03:29 35.4 °F 27.3 °F 30.09 in NW 6.5 mph 10.4 mph 72 % 0.00 in
03:39 35.3 °F 27.5 °F 30.09 in WNW 4.1 mph 11.5 mph 73 % 0.00 in
03:44 35.3 °F 27.2 °F 30.09 in North 3.3 mph 9.0 mph 72 % 0.00 in
03:49 35.2 °F 26.7 °F 30.09 in NW 4.9 mph 10.4 mph 71 % 0.00 in
03:54 35.1 °F 26.6 °F 30.09 in NW 4.7 mph 6.9 mph 71 % 0.00 in
03:59 35.0 °F 26.5 °F 30.09 in NW 7.1 mph 13.8 mph 71 % 0.00 in
04:09 34.9 °F 26.4 °F 30.09 in NW 4.5 mph 8.1 mph 71 % 0.00 in
04:25 34.8 °F 27.0 °F 30.10 in NNW 5.9 mph 6.0 mph 73 % 0.00 in
04:30 34.7 °F 26.6 °F 29.86 in NW 2.2 mph 12.7 mph 72 % 0.00 in
04:35 34.6 °F 26.5 °F 30.09 in WNW 5.5 mph 10.0 mph 72 % 0.00 in
04:45 34.4 °F 26.3 °F 30.09 in NNW 2.1 mph 6.9 mph 72 % 0.00 in
04:50 34.4 °F 26.3 °F 30.09 in NNW 4.3 mph 8.1 mph 72 % 0.00 in
05:00 34.3 °F 25.9 °F 30.09 in North 5.7 mph 11.5 mph 71 % 0.00 in
05:10 34.1 °F 26.0 °F 30.10 in North 6.6 mph 13.8 mph 72 % 0.00 in
05:20 34.0 °F 25.6 °F 30.10 in NNE 4.0 mph 8.1 mph 71 % 0.00 in
05:25 33.9 °F 25.8 °F 30.10 in North 3.6 mph 6.9 mph 72 % 0.00 in
05:35 33.7 °F 25.3 °F 30.09 in North 1.9 mph 6.0 mph 71 % 0.00 in
05:40 33.7 °F 26.0 °F 30.09 in NW 2.6 mph 6.9 mph 73 % 0.00 in
05:45 33.6 °F 25.5 °F 30.09 in NW 2.8 mph 6.9 mph 72 % 0.00 in
05:55 33.5 °F 25.4 °F 30.11 in NW 0.7 mph 6.9 mph 72 % 0.00 in
06:00 33.4 °F 25.3 °F 30.11 in NNW 3.0 mph 5.8 mph 72 % 0.00 in
06:10 33.3 °F 25.6 °F 30.10 in North 4.9 mph 5.8 mph 73 % 0.00 in
06:15 33.3 °F 25.6 °F 30.11 in NNW 0.7 mph 3.5 mph 73 % 0.00 in
06:20 33.2 °F 25.1 °F 29.87 in North 1.7 mph 3.5 mph 72 % 0.00 in
06:26 33.2 °F 25.5 °F 30.11 in NNW 5.0 mph 9.0 mph 73 % 0.00 in
06:31 33.2 °F 25.5 °F 30.11 in North 1.0 mph 6.0 mph 73 % 0.00 in
06:36 33.2 °F 25.1 °F 30.10 in NNW 1.4 mph 4.6 mph 72 % 0.00 in
06:41 33.1 °F 25.1 °F 29.87 in NW 3.9 mph 9.2 mph 72 % 0.00 in
06:51 33.0 °F 25.0 °F 29.87 in NNW 1.0 mph 3.5 mph 72 % 0.00 in
06:56 33.0 °F 25.3 °F 30.11 in North 1.5 mph 3.5 mph 73 % 0.00 in
07:06 32.9 °F 25.2 °F 30.11 in NW 1.2 mph 3.5 mph 73 % 0.00 in
07:11 32.9 °F 25.2 °F 30.12 in WNW 0.1 mph 2.0 mph 73 % 0.00 in
07:16 32.8 °F 25.1 °F 30.13 in Calm   3.5 mph 73 % 0.00 in
07:21 32.8 °F 24.8 °F 30.13 in WNW 3.0 mph 3.5 mph 72 % 0.00 in
07:26 32.8 °F 24.8 °F 30.13 in WNW 1.4 mph 3.5 mph 72 % 0.00 in
07:31 32.9 °F 24.9 °F 30.13 in NE 3.1 mph 8.1 mph 72 % 0.00 in
07:36 33.0 °F 25.0 °F 30.13 in NW 2.1 mph 7.0 mph 72 % 0.00 in
07:41 33.1 °F 25.1 °F 29.89 in North 0.4 mph 4.6 mph 72 % 0.00 in
07:51 33.2 °F 24.5 °F 30.13 in North 2.3 mph 5.0 mph 70 % 0.00 in
07:57 33.4 °F 25.3 °F 30.13 in NNE 1.0 mph 3.5 mph 72 % 0.00 in
08:03 33.5 °F 24.8 °F 30.13 in NNW 4.4 mph 8.1 mph 70 % 0.00 in
08:08 33.6 °F 24.5 °F 30.13 in North 1.1 mph 5.8 mph 69 % 0.00 in
08:13 33.7 °F 25.0 °F 30.13 in NW 2.4 mph 3.5 mph 70 % 0.00 in
08:18 33.8 °F 24.7 °F 30.13 in WNW 2.9 mph 6.0 mph 69 % 0.00 in
08:28 34.0 °F 24.9 °F 29.90 in WNW 3.9 mph 8.0 mph 69 % 0.00 in
08:38 34.3 °F 25.2 °F 30.13 in NW 1.2 mph 2.3 mph 69 % 0.00 in
08:43 34.3 °F 24.8 °F 30.13 in NW 2.2 mph 4.6 mph 68 % 0.00 in
08:58 35.3 °F 25.4 °F 30.13 in NNE 2.2 mph 4.6 mph 67 % 0.00 in
09:08 36.3 °F 25.7 °F 30.13 in North 3.2 mph 11.5 mph 65 % 0.00 in
09:23 37.8 °F 27.1 °F 30.13 in NW 0.8 mph 3.5 mph 65 % 0.00 in
09:34 38.5 °F 26.6 °F 30.14 in WNW 2.5 mph 7.0 mph 62 % 0.00 in
09:39 38.9 °F 27.4 °F 30.14 in WNW 0.8 mph 3.5 mph 63 % 0.00 in
09:44 39.4 °F 27.5 °F 30.13 in WSW 2.5 mph 7.0 mph 62 % 0.00 in
09:54 40.0 °F 27.2 °F 30.13 in North 2.1 mph 4.6 mph 60 % 0.00 in
09:59 40.4 °F 28.4 °F 30.12 in North 3.9 mph 5.8 mph 62 % 0.00 in
10:04 40.6 °F 28.2 °F 30.12 in NW 2.0 mph 4.6 mph 61 % 0.00 in
10:09 40.9 °F 28.1 °F 30.13 in NNW 1.3 mph 3.5 mph 60 % 0.00 in
10:14 41.1 °F 28.3 °F 30.12 in NNW 3.1 mph 5.0 mph 60 % 0.00 in
10:19 41.2 °F 28.4 °F 30.12 in NNE 2.2 mph 4.6 mph 60 % 0.00 in
10:24 41.1 °F 27.4 °F 30.12 in WNW 4.3 mph 5.8 mph 58 % 0.00 in
10:29 41.0 °F 28.2 °F 30.12 in NNW 0.5 mph 3.5 mph 60 % 0.00 in
10:34 40.7 °F 27.5 °F 30.12 in NW 3.3 mph 6.9 mph 59 % 0.00 in
10:39 40.6 °F 27.0 °F 30.12 in NW 1.7 mph 4.6 mph 58 % 0.00 in
10:44 40.4 °F 26.8 °F 30.12 in NW 0.7 mph 2.3 mph 58 % 0.00 in
10:49 40.2 °F 27.0 °F 30.11 in NW 1.6 mph 4.6 mph 59 % 0.00 in
10:54 39.9 °F 26.7 °F 30.12 in NNW 2.4 mph 4.6 mph 59 % 0.00 in
10:59 39.7 °F 26.1 °F 29.87 in NW 0.5 mph 6.9 mph 58 % 0.00 in
11:04 39.4 °F 25.8 °F 30.11 in NW 2.2 mph 5.8 mph 58 % 0.00 in
11:14 38.8 °F 25.7 °F 30.10 in WNW 1.4 mph 4.6 mph 59 % 0.00 in
11:29 38.4 °F 25.7 °F 30.09 in NNW 1.9 mph 8.0 mph 60 % 0.00 in
11:35 38.3 °F 26.0 °F 30.09 in NW 2.8 mph 5.8 mph 61 % 0.00 in
11:40 38.3 °F 26.4 °F 30.08 in NW 1.0 mph 3.5 mph 62 % 0.00 in
11:45 38.2 °F 26.7 °F 29.84 in NNW 1.2 mph 5.0 mph 63 % 0.00 in
11:51 38.2 °F 26.3 °F 30.08 in NW 3.0 mph 7.0 mph 62 % 0.00 in
11:56 38.3 °F 26.0 °F 29.85 in NW 3.8 mph 7.0 mph 61 % 0.00 in
12:06 38.5 °F 25.4 °F 30.08 in West 2.0 mph 5.8 mph 59 % 0.00 in
12:11 38.6 °F 25.9 °F 30.08 in North 4.6 mph 8.1 mph 60 % 0.00 in
12:16 38.7 °F 26.0 °F 30.08 in NW 2.4 mph 3.5 mph 60 % 0.00 in
12:21 38.8 °F 26.1 °F 30.08 in NW 1.3 mph 3.5 mph 60 % 0.00 in
12:26 39.0 °F 25.9 °F 30.08 in WNW 0.6 mph 4.6 mph 59 % 0.00 in
12:36 39.2 °F 25.6 °F 30.07 in WNW 1.0 mph 2.3 mph 58 % 0.00 in
12:41 39.3 °F 25.3 °F 30.07 in SW 4.0 mph 8.0 mph 57 % 0.00 in
13:01 39.8 °F 26.2 °F 30.07 in NNW 2.1 mph 3.5 mph 58 % 0.00 in
13:07 40.0 °F 26.4 °F 30.06 in WNW 3.0 mph 4.6 mph 58 % 0.00 in
13:12 40.2 °F 25.7 °F 30.06 in WNW 2.4 mph 4.0 mph 56 % 0.00 in
13:27 40.8 °F 26.3 °F 30.06 in WNW 3.7 mph 6.9 mph 56 % 0.00 in
13:32 41.1 °F 26.1 °F 30.06 in NW 0.3 mph 3.5 mph 55 % 0.00 in
13:37 41.4 °F 26.9 °F 30.05 in West 1.2 mph 3.5 mph 56 % 0.00 in
13:44 41.8 °F 26.4 °F 30.05 in West 4.8 mph 9.2 mph 54 % 0.00 in
13:49 42.0 °F 26.1 °F 30.05 in WNW 1.1 mph 4.6 mph 53 % 0.00 in
13:50 42.1 °F 26.2 °F 30.05 in WNW 0.6 mph 1.2 mph 53 % 0.00 in
13:55 42.2 °F 26.7 °F 30.04 in NW 1.5 mph 3.5 mph 54 % 0.00 in
14:00 42.3 °F 26.4 °F 30.04 in North 2.3 mph 3.5 mph 53 % 0.00 in
14:05 42.4 °F 26.9 °F 30.04 in WNW 1.3 mph 3.5 mph 54 % 0.00 in
14:10 42.4 °F 26.5 °F 30.04 in Calm   2.3 mph 53 % 0.00 in
14:15 42.5 °F 26.6 °F 30.04 in NW 1.7 mph 4.0 mph 53 % 0.00 in
14:30 42.0 °F 25.6 °F 30.04 in WSW 3.3 mph 5.0 mph 52 % 0.00 in
14:35 41.7 °F 25.8 °F 30.04 in NW 1.6 mph 5.8 mph 53 % 0.00 in
14:40 41.5 °F 25.6 °F 30.04 in West 1.2 mph 4.6 mph 53 % 0.00 in
14:45 41.5 °F 25.6 °F 29.80 in West 1.1 mph 3.5 mph 53 % 0.00 in
14:51 41.3 °F 25.9 °F 30.04 in West 2.0 mph 5.0 mph 54 % 0.00 in
15:06 41.0 °F 25.6 °F 30.04 in WSW 0.1 mph 2.3 mph 54 % 0.00 in
15:11 41.0 °F 25.6 °F 30.03 in Calm   3.0 mph 54 % 0.00 in
15:16 40.9 °F 25.5 °F 30.03 in West 3.6 mph 6.9 mph 54 % 0.00 in
15:21 40.8 °F 25.4 °F 30.04 in WSW 2.0 mph 5.0 mph 54 % 0.00 in
15:31 40.7 °F 25.3 °F 30.04 in Calm   3.0 mph 54 % 0.00 in
15:36 40.6 °F 25.7 °F 29.80 in West 1.0 mph 3.0 mph 55 % 0.00 in
15:41 40.5 °F 25.6 °F 30.04 in WSW 3.0 mph 6.0 mph 55 % 0.00 in
15:46 40.4 °F 25.5 °F 30.04 in WSW 2.0 mph 5.0 mph 55 % 0.00 in
15:56 40.3 °F 25.8 °F 30.04 in WSW 1.0 mph 3.0 mph 56 % 0.00 in
16:01 40.2 °F 25.7 °F 30.04 in WSW 2.4 mph 3.5 mph 56 % 0.00 in
16:13 39.9 °F 25.9 °F 30.03 in Calm     57 % 0.00 in
16:18 39.8 °F 25.8 °F 30.03 in Calm     57 % 0.00 in
16:28 39.5 °F 25.9 °F 30.03 in Calm     58 % 0.00 in
16:33 39.3 °F 26.2 °F 29.80 in Calm     59 % 0.00 in
16:35 39.2 °F 26.5 °F 30.03 in Calm     60 % 0.00 in
16:40 39.0 °F 26.7 °F 30.03 in Calm     61 % 0.00 in
16:45 38.8 °F 26.5 °F 30.03 in Calm     61 % 0.00 in
16:50 38.5 °F 26.6 °F 30.03 in Calm     62 % 0.00 in
16:57 38.2 °F 26.7 °F 30.03 in Calm     63 % 0.00 in
17:02 37.9 °F 26.4 °F 30.03 in Calm     63 % 0.00 in
17:07 37.5 °F 26.8 °F 30.03 in Calm     65 % 0.00 in
17:12 37.3 °F 26.6 °F 30.03 in Calm     65 % 0.00 in
17:17 37.0 °F 26.7 °F 30.03 in Calm     66 % 0.00 in
17:22 36.7 °F 26.4 °F 30.03 in Calm     66 % 0.00 in
17:27 36.4 °F 26.1 °F 30.04 in WSW 0.1 mph 1.0 mph 66 % 0.00 in
17:32 36.1 °F 26.2 °F 30.04 in Calm     67 % 0.00 in
17:37 35.9 °F 26.4 °F 30.04 in Calm     68 % 0.00 in
17:42 35.6 °F 26.1 °F 30.04 in Calm     68 % 0.00 in
17:47 35.3 °F 25.8 °F 30.04 in Calm     68 % 0.00 in
17:58 34.9 °F 25.4 °F 30.04 in WSW 0.1 mph 2.3 mph 68 % 0.00 in
18:03 34.8 °F 25.3 °F 30.04 in Calm     68 % 0.00 in
18:08 34.6 °F 25.5 °F 30.04 in Calm     69 % 0.00 in
18:13 34.5 °F 25.7 °F 30.03 in Calm     70 % 0.00 in
18:23 34.2 °F 25.8 °F 30.03 in WSW 0.1 mph 1.2 mph 71 % 0.00 in
18:28 34.1 °F 25.7 °F 30.03 in Calm   1.2 mph 71 % 0.00 in
18:38 33.8 °F 25.7 °F 30.04 in WSW 1.0 mph 2.3 mph 72 % 0.00 in
18:43 33.7 °F 25.6 °F 30.03 in WSW 1.6 mph 2.3 mph 72 % 0.00 in
18:48 33.5 °F 25.8 °F 30.04 in Calm     73 % 0.00 in
18:53 33.5 °F 25.8 °F 30.04 in Calm     73 % 0.00 in
18:58 33.5 °F 25.8 °F 29.80 in Calm     73 % 0.00 in
19:13 33.5 °F 25.4 °F 30.04 in Calm   1.2 mph 72 % 0.00 in
19:18 33.6 °F 25.2 °F 30.04 in Calm     71 % 0.00 in
19:24 33.7 °F 25.0 °F 29.80 in Calm   1.2 mph 70 % 0.00 in
19:34 34.0 °F 24.9 °F 30.03 in Calm     69 % 0.00 in
19:39 34.1 °F 25.3 °F 29.80 in Calm     70 % 0.00 in
19:43 34.2 °F 25.1 °F 30.03 in Calm     69 % 0.00 in
19:48 34.3 °F 24.8 °F 30.03 in WSW 0.2 mph   68 % 0.00 in
19:59 34.4 °F 24.9 °F 30.03 in Calm     68 % 0.00 in
20:04 34.4 °F 24.9 °F 30.03 in Calm     68 % 0.00 in
20:09 34.4 °F 25.3 °F 30.03 in Calm     69 % 0.00 in
20:19 34.4 °F 25.6 °F 30.04 in WSW 0.4 mph 1.2 mph 70 % 0.00 in
20:29 34.4 °F 26.0 °F 30.03 in Calm     71 % 0.00 in
20:39 34.3 °F 25.9 °F 30.03 in Calm     71 % 0.00 in
20:49 34.1 °F 25.7 °F 30.03 in Calm     71 % 0.00 in
20:54 34.0 °F 25.6 °F 30.04 in WSW 0.3 mph 1.2 mph 71 % 0.00 in
21:00 33.9 °F 25.8 °F 30.04 in Calm     72 % 0.00 in
21:05 33.8 °F 25.7 °F 30.03 in WSW 0.6 mph 1.2 mph 72 % 0.00 in
21:10 33.6 °F 25.9 °F 30.04 in WSW 0.3 mph 1.2 mph 73 % 0.00 in
21:15 33.5 °F 25.8 °F 30.04 in Calm     73 % 0.00 in
21:20 33.4 °F 25.7 °F 30.04 in Calm     73 % 0.00 in
21:25 33.3 °F 25.6 °F 30.05 in Calm     73 % 0.00 in
21:30 33.2 °F 25.8 °F 30.05 in Calm     74 % 0.00 in
21:35 33.0 °F 25.6 °F 30.05 in Calm     74 % 0.00 in
21:45 32.8 °F 25.7 °F 30.05 in WSW 1.3 mph 2.3 mph 75 % 0.00 in
21:55 32.6 °F 25.9 °F 30.05 in WSW 1.0 mph 2.3 mph 76 % 0.00 in
22:00 32.5 °F 25.8 °F 30.05 in Calm   1.2 mph 76 % 0.00 in
22:05 32.4 °F 26.0 °F 30.06 in WSW 1.5 mph 2.3 mph 77 % 0.00 in
22:10 32.3 °F 25.9 °F 30.06 in Calm   1.2 mph 77 % 0.00 in
22:16 32.3 °F 25.9 °F 30.06 in WSW 0.9 mph 1.2 mph 77 % 0.00 in
22:21 32.2 °F 26.1 °F 30.06 in Calm   1.0 mph 78 % 0.00 in
22:23 32.1 °F 26.0 °F 30.06 in Calm   1.2 mph 78 % 0.00 in
22:31 32.0 °F 25.9 °F 30.05 in Calm     78 % 0.00 in
22:36 32.0 °F 25.9 °F 30.06 in Calm     78 % 0.00 in
22:41 31.9 °F 25.8 °F 30.06 in WSW 0.5 mph 1.2 mph 78 % 0.00 in
22:46 31.9 °F 26.1 °F 30.06 in WSW 0.3 mph 1.2 mph 79 % 0.00 in
22:52 31.8 °F 26.0 °F 30.05 in WSW 0.9 mph 2.3 mph 79 % 0.00 in
22:57 31.7 °F 25.9 °F 30.05 in WSW 0.2 mph 1.2 mph 79 % 0.00 in
23:07 31.6 °F 26.1 °F 30.05 in Calm     80 % 0.00 in
23:11 31.6 °F 26.1 °F 30.05 in Calm     80 % 0.00 in
23:17 31.6 °F 26.1 °F 30.05 in WSW 1.3 mph 2.3 mph 80 % 0.00 in
23:22 31.5 °F 26.0 °F 30.05 in WSW 0.6 mph 2.3 mph 80 % 0.00 in
23:26 31.4 °F 25.9 °F 30.05 in WSW 1.0 mph 2.0 mph 80 % 0.00 in
23:32 31.4 °F 25.9 °F 30.05 in WSW 0.9 mph 1.2 mph 80 % 0.00 in
23:37 31.3 °F 25.8 °F 30.05 in Calm     80 % 0.00 in
23:42 31.2 °F 25.7 °F 30.05 in WSW 0.5 mph 2.3 mph 80 % 0.00 in
23:47 31.2 °F 26.0 °F 30.05 in WSW 0.4 mph 1.2 mph 81 % 0.00 in
23:57 31.1 °F 26.0 °F 30.06 in WSW 1.1 mph 2.3 mph 81 % 0.00 in
Crab Meadow Weather
Compliments of Weather Underground - 2.5 mb

Script developed by  Jim McMurry - jmcmurry@mwt.net Adapted for the template by  Wim van der Kuil - Leuven-Template.eu

Recycling: We use over 80,000,000,000 aluminum soda cans every year.